This is the latest recevied weather packets stored in our database for station/object G4KVI. If no packets are shown the sender has not sent any weather packets the latest 10 day(s).
| Time | Temp. | Humidity | Pressure | Rain* | Wind** | Luminosity | Snow |
|---|---|---|---|---|---|---|---|
| 1787424905 | 20° C | 46% | 1026.2 hPa | 0 mm | - | 15 W/m² | - |
| 1787424605 | 21.11° C | 43% | 1025.7 hPa | 0 mm | - | 18 W/m² | - |
| 1787424305 | 21.67° C | 42% | 1026.1 hPa | 0 mm | - | 21 W/m² | - |
| 1787424005 | 22.22° C | 40% | 1026 hPa | 0 mm | - | 27 W/m² | - |
| 1787423705 | 21.67° C | 40% | 1026 hPa | 0 mm | - | 32 W/m² | - |
| 1787423405 | 21.67° C | 38% | 1025.9 hPa | 0 mm | - | 36 W/m² | - |
| 1787423105 | 21.11° C | 38% | 1025.6 hPa | 0 mm | - | 41 W/m² | - |
| 1787422805 | 21.11° C | 39% | 1025.5 hPa | 0 mm | - | 47 W/m² | - |
| 1787422505 | 21.11° C | 39% | 1025.7 hPa | 0 mm | - | 53 W/m² | - |
| 1787422205 | 21.11° C | 39% | 1025.7 hPa | 0 mm | - | 59 W/m² | - |
| 1787421905 | 21.11° C | 40% | 1025.6 hPa | 0 mm | - | 67 W/m² | - |
| 1787421605 | 21.11° C | 39% | 1025.7 hPa | 0 mm | - | 74 W/m² | - |
| 1787421305 | 21.11° C | 39% | 1025.6 hPa | 0 mm | - | 82 W/m² | - |
| 1787421005 | 21.11° C | 40% | 1025.8 hPa | 0 mm | - | 73 W/m² | - |
| 1787420705 | 21.11° C | 40% | 1025.7 hPa | 0 mm | - | 60 W/m² | - |
| 1787420405 | 20.56° C | 40% | 1025.8 hPa | 0 mm | - | 96 W/m² | - |
| 1787420105 | 20.56° C | 40% | 1025.5 hPa | 0 mm | - | 121 W/m² | - |
| 1787419805 | 21.11° C | 40% | 1025.8 hPa | 0 mm | - | 101 W/m² | - |
| 1787419505 | 21.11° C | 41% | 1025.5 hPa | 0 mm | - | 138 W/m² | - |
| 1787419205 | 21.11° C | 42% | 1025.6 hPa | 0 mm | - | 149 W/m² | - |
| 1787418905 | 20.56° C | 42% | 1025.5 hPa | 0 mm | - | 103 W/m² | - |
| 1787418605 | 20.56° C | 43% | 1025.5 hPa | 0 mm | - | 169 W/m² | - |
| 1787418305 | 20° C | 42% | 1025.6 hPa | 0 mm | - | 81 W/m² | - |
| 1787418005 | 20° C | 42% | 1025.6 hPa | 0 mm | - | 68 W/m² | - |
| 1787417705 | 20.56° C | 42% | 1025.8 hPa | 0 mm | - | 70 W/m² | - |
* Rain latest hour (hover to see other rain measurements)
** Current wind speed in m/s (hover to see current wind gust speed)